User: anonymous   Login
Location: Unspecified
(0.0000°N, 0.0000°E)
Time: 00:00:39
(UTC+00:00)
Language:

STARLINK-1591 - Orbit

View from above orbital plane
View from above orbital plane
View from above satellite
View from above satellite

Ground track
Ground track

The orbit is defined by the following mean orbital elements,

1 46045U          26145.27449399 +.00000000 +00000-0 +14574-4 0 00002
2 46045  53.1593 130.9746 0001443  90.7178 269.3988 15.30193745    04
Epoch (UTC): 25 May 2026 06:35:16
Eccentricity: 0.0001443
inclination: 53.1593°
perigee height: 474 km
apogee height: 476 km
right ascension of ascending node: 130.9746°
argument of perigee: 90.7178°
revolutions per day: 15.30193745
mean anomaly at epoch: 269.3988°

The dashed part of the orbit path shows where the satellite is in the earth's shadow,  

DLR